Ab-e Darah, Afghanistan

7:24 AM AFT on February 22, 2017 (GMT +0430)
Mazar-I-Sharif

Weather History for OAMS - December, 2013

Change the Weather History Date:

Saturday, December 28, 2013

  Actual Average Record
Temperature  
Mean Temperature 27 °F -  
Max Temperature 30 °F 46 °F - ()
Min Temperature 24 °F 28 °F - ()
Degree Days  
Heating Degree Days 38    
Moisture  
Dew Point 23 °F    
Average Humidity 79    
Maximum Humidity 100    
Minimum Humidity 56    
Precipitation  
Precipitation 0.02 in 0.04 in - ()
Sea Level Pressure  
Sea Level Pressure 30.60 in    
Wind  
Wind Speed 7 mph ()    
Max Wind Speed 16 mph    
Max Gust Speed -    
Visibility 4.5 miles    
Events Snow    
T = Trace of Precipitation, MM = Missing Value Source: Averaged Metar Reports

Daily Weather History Graph

Daily Weather History Graph

Search for Another Location

Airport or City:

Trip Planner

Search our weather history database for the weather conditions in past years. The results will help you decide how hot, cold, wet, or windy it might be!

Date:

Astronomy

Dec. 28, 2013 Rise Set
Actual Time 7:12 AM AFT 4:52 PM AFT
Civil Twilight 6:43 AM AFT 5:21 PM AFT
Nautical Twilight 6:11 AM AFT 5:54 PM AFT
Astronomical Twilight 5:39 AM AFT 6:25 PM AFT
Moon 2:25 AM AFT (12/28) 1:21 PM AFT (12/28)
Length of Visible Light 10h 37m
Length of Day
9h 40m
Waning Crescent, 23% of the Moon is Illuminated
Dec 28
Waning Crescent
Jan 1
New
Jan 8
First Quarter
Jan 16
Full
Jan 24
Last Quarter

Hourly Weather History & Observations

Time (AFT) Temp. Windchill Dew Point Humidity Pressure Visibility Wind Dir Wind Speed Gust Speed Precip Events Conditions
12:20 AM 32.0 °F 25.6 °F 32.0 °F 100% 30.39 in 0.9 mi West 6.9 mph - N/A Snow Snow
1:20 AM 32.0 °F 27.5 °F 32.0 °F 100% 30.39 in 1.0 mi West 4.6 mph - N/A Snow Light Snow
1:30 AM 32 °F - 31 °F 97% 30.47 in 1 mi West 4.5 mph - - Snow Light Snow
2:20 AM 30.2 °F 21.9 °F 28.4 °F 93% 30.42 in 0.7 mi WNW 9.2 mph - N/A Snow Snow
2:30 AM 30 °F - 29 °F 92% 30.50 in 1 mi WNW 8.9 mph - - Snow Snow
3:20 AM 30.2 °F 23.4 °F 28.4 °F 93% 30.45 in 1.9 mi WSW 6.9 mph - N/A Snow Light Snow
4:20 AM 30.2 °F 23.4 °F 28.4 °F 93% 30.45 in 0.9 mi WSW 6.9 mph - N/A Snow Snow
4:30 AM 29 °F - 28 °F 94% 30.54 in 1 mi WSW 6.7 mph - - Snow Snow
5:20 AM 28.4 °F 19.7 °F 26.6 °F 93% 30.48 in 0.6 mi West 9.2 mph - N/A Snow Snow
5:30 AM 28 °F - 27 °F 95% 30.57 in 1 mi West 8.9 mph - - Snow Snow
6:20 AM 26.6 °F 16.8 °F 24.8 °F 93% 30.51 in 0.6 mi West 10.4 mph - N/A Snow Snow
6:30 AM 27 °F - 25 °F 88% 30.61 in 1 mi West 11.2 mph - - Snow Snow
6:35 AM 26.6 °F 18.2 °F 24.8 °F 93% 30.54 in 1.6 mi WSW 8.1 mph - N/A Snow Light Snow
7:20 AM 26.6 °F 16.8 °F 24.8 °F 93% 30.54 in 2.5 mi West 10.4 mph - N/A Snow Light Snow
7:30 AM 27 °F - 24 °F 84% 30.63 in 2 mi West 11.2 mph - - Snow Light Snow
8:20 AM 28.4 °F 17.5 °F 23.0 °F 80% 30.54 in 2.5 mi West 13.8 mph - N/A Snow Light Snow
8:30 AM 28 °F - 24 °F 77% 30.65 in 2 mi West 13.4 mph - - Snow Light Snow
9:20 AM 28.4 °F 17.0 °F 23.0 °F 80% 30.60 in 2.5 mi West 15.0 mph - N/A Snow Light Snow
9:30 AM 28 °F - 23 °F 76% 30.68 in 2 mi West 15.7 mph - - Snow Light Snow
10:20 AM 28.4 °F 18.5 °F 23.0 °F 80% 30.60 in 3.1 mi West 11.5 mph - N/A   Haze
10:30 AM 28 °F - 22 °F 72% 30.69 in 3 mi West 11.2 mph - - Snow Light Snow
11:20 AM 28.4 °F 18.0 °F 23.0 °F 80% 30.60 in 3.1 mi WNW 12.7 mph - N/A   Scattered Clouds
11:30 AM 28 °F - 23 °F 76% 30.69 in 3 mi WNW 13.4 mph - -   Mist
12:20 PM 28.4 °F 19.1 °F 21.2 °F 74% 30.60 in 6.2 mi West 10.4 mph - N/A   Scattered Clouds
12:30 PM 28 °F - 22 °F 69% 30.68 in 7 mi West 11.2 mph - -   Mostly Cloudy
1:20 PM 28.4 °F 19.7 °F 19.4 °F 69% 30.60 in 6.2 mi West 9.2 mph - N/A   Mostly Cloudy
1:30 PM 29 °F - 20 °F 58% 30.67 in 12 mi West 8.9 mph - -   Mostly Cloudy
2:20 PM 30.2 °F 23.4 °F 21.2 °F 69% 30.60 in 6.2 mi West 6.9 mph - N/A   Mostly Cloudy
2:30 PM 30 °F - 20 °F 56% 30.67 in 12 mi West 6.7 mph - -   Mostly Cloudy
3:20 PM 28.4 °F 23.3 °F 21.2 °F 74% 30.60 in 6.2 mi SW 4.6 mph - N/A   Mostly Cloudy
3:30 PM 29 °F - 21 °F 61% 30.68 in 16 mi SW 4.5 mph - -   Mostly Cloudy
4:20 PM 28.4 °F 22.2 °F 21.2 °F 74% 30.60 in 6.2 mi SSW 5.8 mph - N/A   Mostly Cloudy
4:30 PM 29 °F - 20 °F 59% 30.69 in 16 mi SSW 6.7 mph - -   Mostly Cloudy
5:20 PM 28.4 °F 22.2 °F 19.4 °F 69% 30.60 in 6.2 mi SSW 5.8 mph - N/A   Mostly Cloudy
5:30 PM 28 °F - 20 °F 61% 30.70 in 12 mi SSW 6.7 mph - -   Partly Cloudy
6:20 PM 28.4 °F 22.2 °F 19.4 °F 69% 30.63 in 6.2 mi SSW 5.8 mph - N/A   Mostly Cloudy
6:30 PM 28 °F - 20 °F 61% 30.71 in 12 mi SSW 6.7 mph - -   Partly Cloudy
7:20 PM 28.4 °F 23.3 °F 19.4 °F 69% 30.63 in 6.2 mi SW 4.6 mph - N/A   Mostly Cloudy
7:30 PM 28 °F - 19 °F 57% 30.72 in 12 mi SW 4.5 mph - -   Partly Cloudy
8:20 PM 26.6 °F - 19.4 °F 74% 30.63 in 5.0 mi Variable 2.3 mph - N/A Snow Light Snow
8:30 PM 27 °F - 19 °F 60% 30.73 in 5 mi 2.2 mph - - Snow Light Snow
8:50 PM 26.6 °F - 21.2 °F 80% 30.63 in 3.1 mi SSE 1.2 mph - N/A Snow Light Snow
9:20 PM 26.6 °F - 21.2 °F 80% 30.63 in 2.5 mi SSE 1.2 mph - N/A Snow Light Snow
9:30 PM 26 °F - 21 °F 76% 30.73 in 2 mi SSE 2.2 mph - - Snow Light Snow
10:20 PM 24.8 °F - 23.0 °F 93% 30.63 in 2.5 mi Calm Calm - N/A Snow Light Snow
10:30 PM 25 °F - 23 °F 87% 30.74 in 2 mi Calm Calm - - Snow Light Snow
10:50 PM 24.8 °F - 23.0 °F 93% 30.63 in 3.1 mi WSW 1.2 mph - N/A Snow Light Snow
11:20 PM 24.8 °F - 23.0 °F 93% 30.63 in 4.3 mi SSW 2.3 mph - N/A   Mostly Cloudy
11:30 PM 25 °F - 23 °F 87% 30.72 in 4 mi SSW 2.2 mph - - Snow Light Snow